AMC-3 1 24936U 97050A 26145.31294809 -.00000264 00000+0 00000+0 0 9990 2 24936 8.0920 64.3488 0003080 1.0184 218.1718 1.00270575 52207 NSS-11 1 26554U 00059A 26146.26023625 .00000027 00000+0 00000+0 0 9998 2 26554 2.0722 81.6399 0003099 336.0470 95.8272 1.00272263 41075 AMC-6 1 26580U 00067A 26146.24694330 .00000090 00000+0 00000+0 0 9991 2 26580 0.0980 82.8975 0003596 346.6748 128.0947 1.00270666 93674 AMC-15 1 28446U 04041A 26146.20461554 -.00000087 00000+0 00000+0 0 9993 2 28446 0.0218 311.8526 0002392 121.3941 139.1370 1.00272490 79083 NSS-10 1 28526U 05003A 26146.29601216 -.00000250 00000+0 00000+0 0 9993 2 28526 6.3973 70.7180 0003079 350.2084 252.0534 1.00271461 52939 ASTRA 1KR 1 29055U 06012A 26146.22912278 .00000121 00000+0 00000+0 0 9994 2 29055 0.4190 83.1315 0003531 340.9363 281.2297 1.00274298 45472 ASTRA 1L 1 31306U 07016A 26146.28411134 -.00000182 00000+0 00000+0 0 9990 2 31306 1.2674 81.7420 0005194 352.1183 247.7767 1.00272917 44769 ASTRA 4A 1 32299U 07057A 26146.22634942 .00000035 00000+0 00000+0 0 9991 2 32299 0.0164 313.5575 0002517 115.6177 260.9316 1.00274805 51426 ASTRA 1M 1 33436U 08057A 26146.22920944 .00000122 00000+0 00000+0 0 9993 2 33436 0.2416 82.0009 0004605 9.7040 254.0222 1.00269125 45516 NSS-9 1 33749U 09008A 26146.30350747 .00000074 00000+0 00000+0 0 9990 2 33749 1.2073 82.8539 0002264 330.7351 122.6128 1.00271104 63302 SES-7 (PROTOSTAR 2) 1 34941U 09027A 26146.03293534 -.00000344 00000+0 00000+0 0 9997 2 34941 0.0784 82.9178 0000763 298.4698 342.3273 1.00271348 62401 NSS-12 1 36032U 09058A 26146.23586304 .00000073 00000+0 00000+0 0 9994 2 36032 0.0744 67.1440 0005289 328.1093 350.4729 1.00271286 60691 SES-1 1 36516U 10016A 26146.20539554 -.00000113 00000+0 00000+0 0 9995 2 36516 0.0137 318.4790 0002802 106.6095 151.6308 1.00272122 58818 ASTRA 3B 1 36581U 10021A 26145.58840846 .00000137 00000+0 00000+0 0 9997 2 36581 1.4120 83.8093 0004141 344.6504 50.0840 1.00275677 58645 SES-3 1 37748U 11035A 26146.17128050 -.00000100 00000+0 00000+0 0 9992 2 37748 1.2719 83.3154 0002939 336.3190 142.7846 1.00272656 54373 ASTRA 1N 1 37775U 11041A 26146.22920944 .00000121 00000+0 00000+0 0 9999 2 37775 0.0907 43.8269 0005926 35.2275 266.4616 1.00272157 44302 SES-2 1 37809U 11049A 26146.27945505 .00000000 00000+0 00000+0 0 9996 2 37809 0.0221 66.6021 0003039 1.7658 189.0910 1.00268402 53747 QUETZSAT 1 1 37826U 11054A 26146.21016223 -.00000240 00000+0 00000+0 0 9998 2 37826 0.0599 80.6661 0002766 340.6647 181.1134 1.00272183 49656 SES-4 1 38087U 12007A 26146.19419786 -.00000167 00000+0 00000+0 0 9993 2 38087 0.0268 25.2866 0002401 43.7928 222.6163 1.00270663 52007 SES-5 1 38652U 12036A 26146.22643610 .00000036 00000+0 00000+0 0 9996 2 38652 0.0524 306.2473 0002052 115.0282 269.0254 1.00273180 44233 ASTRA 2F 1 38778U 12051A 26146.23102946 .00000152 00000+0 00000+0 0 9994 2 38778 0.0321 255.1659 0000944 268.8131 191.1996 1.00274082 40914 SES-6 1 39172U 13026A 26146.25606549 -.00000259 00000+0 00000+0 0 9995 2 39172 0.0251 309.5699 0002705 120.6304 225.3137 1.00271320 47508 O3B FM5 1 39188U 13031A 26146.05206099 -.00000023 00000+0 00000+0 0 9991 2 39188 0.1005 351.2409 0003035 60.7428 308.0436 5.00116560235939 O3B FM4 1 39189U 13031B 26146.17143239 -.00000023 00000+0 00000+0 0 9991 2 39189 0.0451 346.0328 0005117 71.4483 302.5682 5.00115274235943 O3B FM2 1 39190U 13031C 26146.03708674 -.00000023 00000+0 00000+0 0 9998 2 39190 0.0412 339.6345 0002762 81.1592 299.2337 5.00116004236000 O3B PFM 1 39191U 13031D 26146.05120564 -.00000023 00000+0 00000+0 0 9997 2 39191 0.0689 356.3097 0005386 67.2557 296.4897 5.00116032235569 ASTRA 2E 1 39285U 13056A 26146.23102946 .00000152 00000+0 00000+0 0 9994 2 39285 0.0703 318.6059 0002595 111.4537 285.4440 1.00273352 46194 SES-8 1 39460U 13071A 26146.10162056 -.00000268 00000+0 00000+0 0 9999 2 39460 0.0253 278.3781 0002856 155.8172 301.0749 1.00272331 44203 ASTRA 5B 1 39617U 14011B 26146.23007611 .00000139 00000+0 00000+0 0 9993 2 39617 0.0530 321.9904 0002512 73.9885 314.1324 1.00271230 44444 O3B FM3 1 40079U 14038A 26145.91797915 -.00000023 00000+0 00000+0 0 9996 2 40079 0.0494 354.6322 0001918 131.4479 233.9374 5.00115672211936 O3B FM7 1 40080U 14038B 26142.66583565 -.00000025 00000+0 00000+0 0 9993 2 40080 0.0504 346.1892 0004017 52.7384 321.1003 5.00115771216609 O3B FM6 1 40081U 14038C 26146.09096423 -.00000023 00000+0 00000+0 0 9995 2 40081 0.0491 351.2732 0002633 71.2856 297.4679 5.00115751216722 O3B FM8 1 40082U 14038D 26145.94434230 -.00000023 00000+0 00000+0 0 9991 2 40082 0.0491 350.1307 0002734 76.3686 293.5292 5.00116059216829 O3B FM10 1 40348U 14083A 26146.17142190 -.00000023 00000+0 00000+0 0 9993 2 40348 0.0432 329.8713 0002700 92.8260 297.3302 5.00115291208795 O3B FM11 1 40349U 14083B 26146.18408510 -.00000023 00000+0 00000+0 0 9996 2 40349 0.0566 356.8184 0002797 51.9684 311.2372 5.00115561208814 O3B FM12 1 40350U 14083C 26145.81133636 -.00000024 00000+0 00000+0 0 9992 2 40350 0.0556 356.7158 0002547 63.8842 299.4252 5.00115971208792 O3B FM9 1 40351U 14083D 26145.83816740 -.00000023 00000+0 00000+0 0 9998 2 40351 0.0576 356.3354 0002707 65.8214 297.8704 5.00115995208950 ASTRA 2G 1 40364U 14089A 26146.23094279 .00000151 00000+0 00000+0 0 9999 2 40364 0.0576 25.9355 0004970 33.5729 295.6267 1.00272398 41740 SES-9 1 41380U 16013A 26146.24680286 -.00000343 00000+0 00000+0 0 9991 2 41380 0.0119 352.4446 0002362 79.4084 9.1207 1.00271902 37216 SES-10 1 42432U 17017A 26146.13222924 -.00000271 00000+0 00000+0 0 9994 2 42432 0.0259 36.9330 0002823 36.0919 151.3960 1.00271340 33537 SES-15 1 42709U 17026A 26145.98598844 .00000061 00000+0 00000+0 0 9996 2 42709 0.0200 332.4762 0001017 47.6089 89.2845 1.00270498 7213 SES-11 (ECHOSTAR 105) 1 42967U 17063A 26146.20461554 -.00000088 00000+0 00000+0 0 9996 2 42967 0.0231 17.1270 0002821 41.7178 153.6469 1.00271712 31509 SES-14 1 43175U 18012B 26146.21603604 -.00000277 00000+0 00000+0 0 9998 2 43175 0.0312 46.2340 0001067 13.1229 214.7058 1.00270927 6808 O3B FM15 1 43231U 18024A 26146.10485361 -.00000023 00000+0 00000+0 0 9999 2 43231 0.0512 3.4204 0002633 57.9687 298.6373 5.00115796149929 O3B FM16 1 43232U 18024B 26145.95730404 -.00000023 00000+0 00000+0 0 9993 2 43232 0.0500 7.9206 0002672 52.1392 299.9665 5.00116009149837 O3B FM14 1 43233U 18024C 26146.19798946 -.00000023 00000+0 00000+0 0 9996 2 43233 0.0487 8.4344 0002880 56.7104 294.8851 5.00115741149858 O3B FM13 1 43234U 18024D 26139.06780045 -.00000019 00000+0 00000+0 0 9991 2 43234 0.0490 326.2733 0003182 43.4287 350.3051 5.00115546149603 SES-12 1 43488U 18049A 26146.01552816 -.00000269 00000+0 00000+0 0 9992 2 43488 0.0413 68.5899 0001112 244.3418 31.2613 1.00272005 29197 O3B FM20 1 44112U 19020A 26145.42447637 -.00000024 00000+0 00000+0 0 9994 2 44112 0.0526 0.0731 0002502 54.6432 305.3067 5.00115575130435 O3B FM19 1 44113U 19020B 26145.45152005 -.00000024 00000+0 00000+0 0 9990 2 44113 0.0663 341.8878 0003990 67.5893 310.5573 5.00116159130307 O3B FM17 1 44114U 19020C 26145.93144176 -.00000023 00000+0 00000+0 0 9993 2 44114 0.0330 2.8565 0002599 59.6268 297.5430 5.00115517130413 O3B FM18 1 44115U 19020D 26145.07820028 -.00000024 00000+0 00000+0 0 9997 2 44115 0.0530 0.0660 0002765 63.9912 295.9707 5.00115354130486 SES-17 1 49332U 21095A 26145.92693603 -.00000272 00000+0 00000+0 0 9994 2 49332 0.0333 46.9321 0001114 13.9197 89.2512 1.00270185 17632 SES-22 1 52933U 22071A 26146.30593685 .00000106 00000+0 00000+0 0 9997 2 52933 0.0183 288.9059 0001262 131.1476 154.9791 1.00274719 7308 SES-20 1 53960U 22123A 26146.26312943 -.00000099 00000+0 00000+0 0 9999 2 53960 0.0464 98.6035 0001997 347.4655 149.3871 1.00269977 13312 SES-21 1 53961U 22123B 26146.26447110 .00000071 00000+0 00000+0 0 9994 2 53961 0.0272 31.0398 0000903 32.8567 144.1508 1.00269888 6993 O3B MPOWER F1 1 54755U 22174A 26146.07551859 -.00000023 00000+0 00000+0 0 9995 2 54755 0.0553 344.1867 0006218 95.4131 136.5074 5.00117067 64254 O3B MPOWER F2 1 54756U 22174B 26145.92227528 -.00000023 00000+0 00000+0 0 9992 2 54756 0.0514 342.6694 0005925 78.2383 299.1514 5.00115190 64334 SES-18 1 55970U 23038A 26146.26312943 -.00000099 00000+0 00000+0 0 9998 2 55970 0.0160 286.6359 0000939 57.7227 251.1214 1.00271675 11888 SES-19 1 55971U 23038B 26146.16781021 .00000089 00000+0 00000+0 0 9993 2 55971 0.0174 302.2332 0001696 118.3399 108.6787 1.00271669 11878 O3B MPOWER F4 1 56367U 23059A 26145.98655846 -.00000023 00000+0 00000+0 0 9999 2 56367 0.0643 358.4377 0007509 74.9775 286.6671 5.00115713 57493 O3B MPOWER F3 1 56368U 23059B 26145.81989236 -.00000024 00000+0 00000+0 0 9996 2 56368 0.0653 358.0485 0006714 66.4825 295.5382 5.00116574 53614 O3B MPOWER F5 1 58346U 23175A 26140.72351744 -.00000023 00000+0 00000+0 0 9994 2 58346 0.0469 12.7092 0004726 60.9652 286.3772 5.00115437 48064 O3B MPOWER F6 1 58347U 23175B 26145.82141698 -.00000023 00000+0 00000+0 0 9996 2 58347 0.0521 5.3660 0004578 52.6071 302.0711 5.00116075 47237 ASTRA 1P (SES-24) 1 60086U 24115A 26146.06503223 .00000121 00000+0 00000+0 0 9995 2 60086 0.0740 31.4562 0001036 313.8039 300.9934 1.00271773 6979 O3B MPOWER F7 1 62362U 24244A 26145.48797205 -.00000024 00000+0 00000+0 0 9990 2 62362 0.0698 352.8814 0006061 68.5209 298.6583 5.00115177 25395 O3B MPOWER F8 1 62363U 24244B 26146.05457890 -.00000023 00000+0 00000+0 0 9997 2 62363 0.0222 319.7673 0006116 94.8534 305.4362 5.00115267 19764 O3B MPOWER F9 1 64866U 25153A 26145.98803437 -.00000023 00000+0 00000+0 0 9990 2 64866 0.0569 12.8278 0006058 74.7356 272.5058 5.00115936 18458 O3B MPOWER F10 1 64867U 25153B 26145.75410316 -.00000024 00000+0 00000+0 0 9997 2 64867 0.0555 8.4171 0002020 260.8968 90.6626 5.00114902 20915